Time,TemperatureF,DewpointF,PressureIn,WindDirection,WindDirectionDegrees,WindSpeedMPH,WindSpeedGustMPH,Humidity,HourlyPrecipIn,Conditions,Clouds,dailyrainin,SoftwareType,DateUTC
2013-01-31 05:00:00,51.0,44.0,-100.00,North,-999,-999.0,-999.0,77,0.00,,,0.00,,2013-01-31 13:00:00,
2013-01-31 06:00:00,49.0,44.0,-100.00,North,-999,-999.0,-999.0,83,-99.99,,,0.00,,2013-01-31 14:00:00,
2013-01-31 06:52:00,49.0,44.0,-100.00,North,-999,-999.0,-999.0,83,-99.99,,,0.00,,2013-01-31 14:52:00,
2013-01-31 07:00:00,49.0,44.0,-100.00,North,-999,-999.0,-999.0,82,0.00,,,0.00,,2013-01-31 15:00:00,
2013-01-31 07:52:00,49.0,44.0,-100.00,North,-999,-999.0,-999.0,82,0.00,,,0.00,,2013-01-31 15:52:00,
2013-01-31 08:00:00,51.0,45.0,-100.00,North,-999,-999.0,-999.0,79,0.00,,,0.00,,2013-01-31 16:00:00,
2013-01-31 09:00:00,57.0,45.0,-100.00,North,-999,-999.0,-999.0,64,0.00,,,0.00,,2013-01-31 17:00:00,
2013-01-31 09:53:00,57.0,45.0,-100.00,North,-999,-999.0,-999.0,64,0.00,,,0.00,,2013-01-31 17:53:00,
2013-01-31 10:00:00,61.0,44.0,-100.00,North,-999,-999.0,-999.0,54,0.00,,,0.00,,2013-01-31 18:00:00,
2013-01-31 10:52:00,61.0,44.0,-100.00,North,-999,-999.0,-999.0,54,0.00,,,0.00,,2013-01-31 18:52:00,
2013-01-31 11:00:00,63.0,46.0,-100.00,North,-999,-999.0,-999.0,52,0.00,,,-99.99,,2013-01-31 19:00:00,
2013-01-31 11:52:00,63.0,46.0,-100.00,North,-999,-999.0,-999.0,52,0.00,,,-99.99,,2013-01-31 19:52:00,
2013-01-31 12:00:00,66.0,46.0,-100.00,North,-999,-999.0,-999.0,48,0.00,,,0.00,,2013-01-31 20:00:00,
2013-01-31 12:52:00,66.0,46.0,-100.00,North,-999,-999.0,-999.0,48,0.00,,,0.00,,2013-01-31 20:52:00,
2013-01-31 13:00:00,68.0,46.0,-100.00,North,-999,-999.0,-999.0,44,0.00,,,0.00,,2013-01-31 21:00:00,
2013-01-31 13:52:00,68.0,46.0,-100.00,North,-999,-999.0,-999.0,44,0.00,,,0.00,,2013-01-31 21:52:00,
2013-01-31 14:00:00,71.0,46.0,-100.00,North,-999,-999.0,-999.0,41,0.00,,,0.00,,2013-01-31 22:00:00,
2013-01-31 14:52:00,71.0,46.0,-100.00,North,-999,-999.0,-999.0,41,0.00,,,0.00,,2013-01-31 22:52:00,
2013-01-31 15:00:00,72.0,48.0,-100.00,North,-999,-999.0,-999.0,42,0.00,,,0.00,,2013-01-31 23:00:00,
2013-01-31 15:52:00,72.0,48.0,-100.00,North,-999,-999.0,-999.0,42,0.00,,,0.00,,2013-01-31 23:52:00,
2013-01-31 16:00:00,71.0,49.0,-100.00,North,-999,-999.0,-999.0,45,0.00,,,0.00,,2013-02-01 00:00:00,
2013-01-31 16:52:00,71.0,49.0,-100.00,North,-999,-999.0,-999.0,45,0.00,,,0.00,,2013-02-01 00:52:00,
2013-01-31 17:00:00,69.0,48.0,-100.00,North,-999,-999.0,-999.0,48,0.00,,,0.00,,2013-02-01 01:00:00,
2013-01-31 17:52:00,69.0,48.0,-100.00,North,-999,-999.0,-999.0,48,0.00,,,0.00,,2013-02-01 01:52:00,
2013-01-31 18:00:00,62.0,50.0,-100.00,North,-999,-999.0,-999.0,65,-99.99,,,0.00,,2013-02-01 02:00:00,
2013-01-31 18:52:00,62.0,50.0,-100.00,North,-999,-999.0,-999.0,65,-99.99,,,0.00,,2013-02-01 02:52:00,
2013-01-31 19:00:00,60.0,49.0,-100.00,North,-999,-999.0,-999.0,68,0.00,,,0.00,,2013-02-01 03:00:00,
2013-01-31 19:52:00,60.0,49.0,-100.00,North,-999,-999.0,-999.0,68,0.00,,,0.00,,2013-02-01 03:52:00,
2013-01-31 20:00:00,62.0,49.0,-100.00,North,-999,-999.0,-999.0,62,-99.99,,,0.00,,2013-02-01 04:00:00,
2013-01-31 20:52:00,62.0,49.0,-100.00,North,-999,-999.0,-999.0,62,-99.99,,,0.00,,2013-02-01 04:52:00,
2013-01-31 21:00:00,61.0,49.0,-100.00,North,-999,-999.0,-999.0,65,-99.99,,,0.00,,2013-02-01 05:00:00,
2013-01-31 22:00:00,61.0,49.0,-100.00,North,-999,-999.0,-999.0,65,-99.99,,,0.00,,2013-02-01 06:00:00,
2013-01-31 22:52:00,61.0,49.0,-100.00,North,-999,-999.0,-999.0,65,-99.99,,,0.00,,2013-02-01 06:52:00,
2013-01-31 23:00:00,60.0,47.0,-100.00,North,-999,-999.0,-999.0,63,-99.99,,,0.00,,2013-02-01 07:00:00,
2013-01-31 23:52:00,60.0,47.0,-100.00,North,-999,-999.0,-999.0,63,-99.99,,,0.00,,2013-02-01 07:52:00,